Temp
49 43 38 43 47 50 46 44 45 48 55 52 53 51 55 59 58 57 59 61 61 63 67 66 66 68 68 67 66 67 66 65 65 64 67 66 65 66 66 69 71 70 70 69
42 39 48 51 50 48 47 43 43 50 55 52 50 50 55 58 57 59 59 60 61 60 61 64 64 67 70 67 68 67 66 64 65 65 64 66 65 66 66 66 68 68 69 70
41 46 53 50 47 44 44 43 43 46 52 52 50 47 51 58 57 61 60 61 61 62 60 60 62 67 70 70 69 69 66 65 65 64 64 63 65 64 65 64 65 67 69 70
44 52 49 47 45 47 40 51 51 50 46 38 50 35 45 53 56 57 61 59 60 61 60 60 63 64 68 68 68 70 66 64 64 64 64 63 62 62 64 64 65 66 67 68
44 47 46 44 47 51 45 54 50 50 44 39 42 37 42 49 52 56 58 58 60 61 60 59 62 65 66 66 66 65 62 63 63 64 64 63 63 64 65 65 65 65 65 67
47 56 53 50 53 54 55 52 49 47 43 33 41 40 39 46 53 55 58 60 62 61 60 60 62 64 64 62 61 61 63 61 62 63 64 65 65 65 64 64 63 62 63 64
45 47 54 57 49 55 53 45 30 30 31 31 41 39 42 50 53 54 55 56 57 59 57 58 61 62 62 62 62 62 61 61 62 63 63 64 64 64 63 62 61 60 60 59
36 34 48 57 51 47 48 46 30 25 27 30 44 36 43 50 52 54 54 53 55 56 58 60 63 64 63 63 61 60 58 58 58 59 58 58 59 58 57 58 58 58 59 58
37 35 53 55 57 54 47 44 46 37 35 33 38 42 48 50 51 55 54 55 57 59 57 58 59 59 58 57 57 56 56 56 57 57 57 57 57 57 55 56 57 57 58 60
42 36 49 54 56 58 54 55 41 41 28 28 35 39 40 44 48 52 53 53 55 57 56 56 55 55 56 56 56 57 57 56 57 57 57 57 57 57 56 55 56 56 57 58
41 41 41 50 45 44 48 47 48 42 35 28 28 33 44 49 52 51 52 54 53 53 53 53 53 54 54 55 55 55 55 55 55 54 54 54 55 55 55 54 54 54 55 55
44 41 35 41 46 51 50 47 43 37 32 35 34 34 47 52 52 53 52 52 52 52 52 52 53 53 53 53 54 54 54 53 54 54 53 52 52 53 52 51 51 52 52 53
44 39 33 34 41 47 44 48 47 42 40 37 32 35 50 52 52 52 50 51 51 52 52 52 52 52 52 53 55 55 54 53 53 53 51 50 49 49 48 48 49 50 50 50
47 41 37 32 35 41 37 47 52 45 34 36 36 40 46 49 50 50 50 51 51 52 51 50 50 50 51 51 52 52 51 51 51 50 48 46 46 46 46 47 48 48 48 48
43 34 41 44 49 48 48 49 51 47 44 40 39 42 46 49 50 50 51 51 50 50 51 51 49 48 48 48 48 49 49 49 48 47 46 45 45 46 46 46 46 46 47 47
42 35 41 41 49 51 49 52 52 52 48 45 45 41 52 53 53 51 51 51 50 49 49 49 49 48 47 47 46 47 46 46 46 45 44 45 44 45 43 44 44 44 44 45
40 34 37 35 45 45 42 48 52 51 50 48 42 44 50 49 51 50 50 50 48 46 46 44 44 43 43 44 44 43 43 44 43 43 44 44 43 43 42 42 43 43 42 43
39 33 36 34 40 29 42 49 54 48 48 48 47 49 51 51 52 52 51 46 44 43 43 42 41 41 41 42 41 41 41 41 41 40 41 41 41 41 41 41 41 41 41 42
43 35 35 30 30 39 44 47 48 48 42 50 49 51 47 47 46 43 47 46 42 41 41 40 40 39 39 40 40 40 38 38 38 38 39 40 40 39 39 39 39 41 41 44
44 41 36 32 29 26 41 50 53 54 39 49 49 47 47 51 41 40 44 44 42 43 42 41 41 39 38 38 39 39 39 39 39 40 39 39 39 39 39 40 41 44 45 45
36 39 33 31 32 38 48 52 54 40 39 50 49 49 50 44 44 43 45 43 44 43 41 41 39 37 37 37 38 38 39 38 40 41 41 39 38 38 41 41 43 43 43 44
38 35 33 33 34 30 51 52 45 45 50 50 50 46 43 43 43 42 42 41 41 41 41 41 39 37 35 36 38 39 39 40 41 40 39 39 40 41 43 42 42 42 43 42
37 39 38 39 37 46 49 48 51 53 47 46 46 46 45 43 42 43 43 43 42 41 40 40 37 35 35 35 36 36 36 39 39 39 38 39 40 41 41 41 40 41 41 41
46 47 40 41 42 44 46 48 50 50 48 49 48 47 46 42 43 43 43 41 41 40 37 37 36 35 34 35 36 35 38 39 38 37 37 38 38 39 40 40 40 39 39 38
45 45 40 38 42 44 46 47 48 48 48 48 48 48 45 44 43 43 41 40 38 37 37 37 35 35 35 36 35 36 38 39 37 36 36 36 37 38 37 39 38 39 40 38
45 42 38 38 45 42 41 46 49 47 47 47 45 44 44 44 40 39 37 38 37 36 36 36 35 35 36 36 35 36 37 38 36 35 35 36 36 37 37 36 37 40 39 39
MSLP
1006.17 1005.91 1003.87 1004.56 1005.52 1006.25 1006.26 1005.96 1005.52 1004.80 1003.92 1004.05 1004.03 1004.30 1004.18 1003.26 1003.35 1003.52 1003.77 1003.88 1004.02 1004.12 1003.34 1003.66 1004.27 1004.78 1005.46 1006.04 1006.37 1006.58 1007.07 1007.53 1008.09 1008.77 1009.36 1009.88 1010.12 1010.42 1010.52 1010.28 1010.36 1010.71 1010.97 1011.36
1005.94 1003.09 1004.25 1005.19 1005.68 1006.09 1006.07 1005.81 1005.13 1004.32 1003.55 1003.77 1003.89 1003.81 1003.46 1002.75 1002.71 1002.59 1002.97 1003.34 1003.48 1003.74 1003.80 1003.94 1004.25 1004.71 1005.00 1005.40 1005.88 1006.57 1006.82 1007.27 1007.65 1008.40 1009.22 1009.62 1010.07 1010.42 1010.57 1010.58 1010.40 1010.67 1011.08 1011.42
1003.11 1002.66 1003.75 1004.03 1004.46 1004.92 1004.95 1004.91 1004.91 1004.33 1003.61 1003.60 1003.67 1003.62 1003.07 1002.38 1002.00 1001.84 1002.06 1002.19 1002.43 1002.81 1003.56 1003.84 1004.37 1004.35 1004.63 1005.02 1005.30 1005.71 1006.40 1007.11 1007.72 1008.24 1008.92 1009.68 1010.14 1010.33 1010.54 1010.70 1010.48 1010.76 1010.96 1011.10
1002.60 1002.17 1002.45 1002.57 1002.85 1003.70 1004.18 1004.60 1004.73 1004.46 1004.18 1004.30 1003.76 1003.77 1002.87 1002.15 1001.72 1001.40 1001.39 1001.72 1001.85 1002.01 1002.60 1003.18 1003.44 1004.15 1004.41 1004.18 1004.97 1005.77 1006.46 1007.16 1007.75 1008.16 1008.87 1009.50 1009.94 1010.09 1010.38 1010.47 1010.53 1010.53 1010.93 1011.06
1000.33 1000.59 1000.90 1001.60 1001.23 1002.67 1002.84 1003.61 1004.25 1004.51 1004.63 1004.68 1004.31 1004.72 1003.07 1002.31 1001.87 1001.28 1000.86 1000.66 1000.69 1000.99 1001.67 1002.24 1002.73 1002.70 1003.03 1004.47 1005.13 1005.93 1006.64 1007.42 1008.05 1008.51 1009.00 1009.71 1010.02 1010.11 1010.21 1010.18 1010.22 1010.80 1011.20 1011.22
999.84 999.47 1000.30 999.94 1000.89 1001.38 1001.77 1002.67 1003.81 1004.59 1005.15 1005.30 1004.43 1004.73 1003.41 1002.29 1001.40 1001.14 1000.38 1000.14 1000.17 1000.45 1001.05 1001.54 1002.35 1003.18 1003.94 1004.68 1005.69 1006.37 1006.99 1007.55 1008.24 1008.58 1009.01 1009.35 1009.73 1009.98 1010.08 1010.32 1010.36 1011.14 1011.35 1011.43
999.82 999.29 998.87 999.06 1000.04 1000.58 1001.05 1001.87 1003.57 1005.13 1005.59 1004.60 1003.98 1004.32 1003.25 1001.90 1001.65 1001.64 1001.25 1000.83 1000.83 1000.90 1001.49 1002.05 1002.44 1003.27 1004.11 1005.10 1006.02 1006.76 1007.20 1007.93 1008.30 1008.60 1008.92 1009.16 1009.62 1009.93 1010.35 1010.40 1010.74 1011.28 1011.66 1011.87
999.27 999.34 998.40 997.68 998.07 998.53 999.58 1000.46 1001.74 1003.22 1004.08 1004.53 1004.19 1003.80 1002.64 1002.40 1002.28 1002.13 1001.74 1001.63 1001.44 1001.70 1002.34 1002.95 1003.97 1004.24 1005.01 1005.84 1006.66 1007.24 1007.91 1008.58 1008.81 1009.08 1009.53 1009.88 1010.00 1010.57 1010.86 1011.01 1011.45 1011.96 1012.03 1012.14
999.05 998.58 997.20 997.34 997.12 997.98 999.18 999.93 1000.42 1001.98 1003.54 1004.36 1004.11 1003.37 1002.77 1002.94 1003.03 1002.84 1002.78 1002.72 1002.80 1003.17 1003.67 1004.13 1004.84 1005.38 1006.01 1006.91 1007.97 1008.59 1009.10 1009.70 1010.14 1010.39 1010.99 1011.26 1011.22 1011.24 1011.53 1011.81 1011.90 1012.25 1012.29 1012.53
998.85 998.64 997.52 997.26 997.32 997.61 997.73 999.08 1000.47 1001.69 1003.37 1004.07 1003.84 1003.59 1003.30 1003.43 1003.68 1003.88 1003.93 1003.87 1003.95 1004.20 1004.81 1005.45 1006.05 1006.59 1007.26 1008.03 1008.85 1009.58 1010.25 1011.15 1011.25 1012.09 1012.13 1012.19 1011.97 1011.99 1012.16 1012.10 1012.45 1012.57 1012.80 1013.01
998.82 997.79 998.10 997.57 997.89 997.73 997.89 998.96 1000.10 1001.52 1002.93 1003.26 1004.01 1004.07 1003.41 1003.53 1003.81 1004.16 1004.39 1004.83 1004.86 1005.25 1006.16 1006.96 1007.43 1008.09 1008.45 1008.70 1009.29 1010.09 1010.87 1011.59 1011.31 1012.75 1012.84 1012.84 1012.90 1012.73 1013.09 1012.94 1013.12 1013.19 1013.11 1013.14
998.66 997.70 998.16 998.39 998.80 998.77 998.41 999.33 1000.14 1001.12 1002.72 1002.86 1003.36 1004.71 1003.99 1003.91 1004.27 1004.63 1005.10 1005.71 1006.13 1006.44 1007.30 1008.20 1008.69 1009.15 1009.50 1010.12 1010.02 1010.16 1010.46 1011.16 1012.64 1013.35 1013.59 1013.72 1013.72 1013.69 1013.57 1013.79 1013.85 1013.77 1013.77 1013.82
997.73 998.16 998.74 999.39 999.39 999.02 999.01 998.84 999.43 1000.40 1001.47 1002.45 1003.38 1004.90 1004.43 1004.43 1004.85 1005.45 1005.92 1006.71 1007.20 1007.62 1008.38 1009.02 1009.36 1010.07 1010.56 1011.27 1011.57 1011.03 1011.39 1013.11 1013.94 1014.09 1014.37 1014.65 1014.62 1014.48 1014.40 1014.32 1014.37 1014.36 1014.39 1014.46
998.70 998.72 997.95 997.88 997.40 997.58 998.77 998.18 998.53 999.63 1001.13 1002.03 1002.95 1004.00 1004.61 1004.87 1005.29 1005.98 1006.86 1007.40 1007.99 1008.73 1009.58 1009.84 1009.68 1010.75 1011.57 1011.92 1012.73 1013.01 1012.80 1014.34 1014.84 1014.93 1015.23 1015.36 1015.51 1015.48 1015.34 1015.28 1015.18 1015.13 1015.08 1014.98
999.60 999.16 997.97 996.89 996.48 996.99 997.38 997.82 997.98 999.20 1000.05 1001.32 1002.72 1002.85 1003.73 1004.73 1005.49 1006.31 1007.16 1008.37 1009.18 1009.92 1010.41 1011.56 1012.74 1011.29 1012.23 1012.26 1012.88 1014.61 1014.81 1015.56 1015.71 1015.85 1016.11 1016.28 1016.06 1016.01 1016.06 1015.92 1015.70 1015.44 1015.31 1015.25
1000.23 999.52 998.38 997.40 996.86 996.81 997.17 997.42 997.85 998.87 999.88 1000.72 1001.99 1003.46 1004.14 1005.07 1006.02 1007.22 1008.15 1008.90 1009.89 1010.96 1011.61 1012.86 1013.92 1013.67 1013.38 1013.84 1014.28 1015.31 1016.23 1016.46 1016.61 1016.83 1017.08 1017.12 1016.89 1016.87 1016.75 1016.37 1016.11 1015.89 1015.67 1015.46
1001.12 1000.74 999.57 999.13 998.15 997.97 997.96 997.84 997.68 999.11 999.61 1000.13 1001.47 1002.39 1004.10 1005.63 1006.63 1007.70 1008.72 1009.95 1011.10 1012.17 1013.19 1014.20 1014.83 1015.02 1014.76 1015.37 1015.90 1016.39 1016.93 1017.26 1017.46 1017.75 1017.76 1017.72 1017.56 1017.27 1017.08 1016.90 1016.37 1016.09 1015.85 1015.64
1001.69 1001.18 1000.49 1000.11 999.45 999.66 999.11 998.55 997.80 999.74 1000.51 1000.36 1001.14 1002.59 1004.18 1005.86 1007.44 1008.68 1010.14 1011.05 1012.57 1013.49 1014.54 1015.17 1015.67 1016.06 1016.29 1016.59 1017.21 1017.91 1018.31 1018.36 1018.13 1018.22 1018.16 1017.95 1017.79 1017.53 1017.40 1016.99 1016.48 1016.18 1015.73 1015.39
1001.70 1001.29 1000.94 1000.55 1000.31 1000.01 999.46 999.08 998.71 999.10 1001.70 1001.65 1002.12 1003.80 1005.37 1006.99 1008.25 1010.83 1011.69 1012.68 1013.68 1014.72 1015.61 1016.30 1016.77 1017.34 1017.63 1017.80 1018.66 1018.73 1018.68 1018.64 1018.81 1018.87 1018.56 1018.32 1018.20 1017.75 1017.32 1016.76 1016.32 1015.88 1015.40 1014.80
1001.06 1001.44 1001.63 1000.93 1000.50 1000.25 999.50 999.02 998.76 998.71 1002.00 1002.77 1003.06 1003.92 1005.31 1006.82 1009.30 1012.36 1013.35 1014.00 1014.81 1015.73 1016.60 1017.30 1017.81 1018.18 1018.44 1018.77 1019.06 1018.97 1018.58 1019.09 1019.08 1018.76 1018.55 1018.45 1018.06 1017.66 1017.05 1016.51 1016.21 1015.73 1015.25 1014.55
1000.73 1000.56 1001.14 1001.01 1001.05 1000.56 999.88 999.35 999.24 1000.00 1002.10 1003.02 1004.72 1005.10 1006.19 1007.92 1009.56 1012.20 1013.86 1015.01 1015.76 1016.63 1017.18 1017.74 1018.04 1018.60 1019.16 1019.32 1019.07 1018.77 1019.17 1018.83 1018.82 1018.68 1018.58 1018.40 1018.08 1017.35 1016.80 1016.64 1016.01 1015.48 1015.02 1014.64
1000.19 1000.62 1001.27 1001.53 1001.57 1001.60 1000.42 999.92 1000.08 1001.17 1002.27 1003.31 1005.56 1006.82 1007.99 1009.69 1011.38 1013.19 1014.63 1015.69 1016.65 1017.20 1017.72 1018.28 1018.62 1019.50 1019.78 1019.44 1019.09 1019.29 1019.30 1019.50 1019.35 1019.17 1018.76 1018.23 1017.64 1017.23 1016.92 1016.54 1015.96 1015.56 1015.25 1014.74
1000.62 1000.72 1001.14 1002.02 1002.64 1002.04 1001.37 1000.84 1000.98 1001.65 1002.34 1005.14 1006.38 1008.06 1008.98 1010.79 1012.57 1014.00 1015.33 1016.35 1017.00 1017.59 1018.43 1018.99 1019.38 1019.67 1019.95 1020.12 1020.01 1019.96 1019.96 1019.72 1019.41 1019.01 1018.55 1018.17 1017.82 1017.40 1016.90 1016.35 1016.09 1015.99 1015.57 1015.09
1000.67 1000.57 1001.38 1002.46 1003.55 1003.16 1002.75 1002.89 1003.00 1003.80 1004.31 1006.24 1007.48 1009.09 1010.06 1011.46 1013.33 1014.69 1015.81 1016.61 1017.45 1018.39 1019.04 1019.42 1019.74 1020.25 1020.61 1020.49 1020.27 1020.11 1019.97 1019.73 1019.51 1019.25 1018.95 1018.60 1018.23 1017.77 1017.39 1017.17 1016.97 1016.56 1016.28 1015.98
1001.24 1001.42 1002.50 1003.90 1004.49 1004.40 1005.02 1004.70 1004.76 1005.96 1006.49 1007.74 1009.55 1010.43 1011.37 1012.52 1014.31 1015.28 1016.43 1017.37 1018.38 1019.09 1019.59 1019.96 1020.16 1020.29 1020.37 1020.37 1020.55 1020.64 1020.66 1020.48 1020.23 1020.05 1019.75 1019.34 1018.94 1018.59 1018.18 1017.86 1017.68 1017.39 1017.12 1016.88
1002.08 1002.40 1002.74 1003.92 1004.50 1004.90 1006.63 1006.96 1006.74 1006.88 1008.40 1009.47 1010.43 1012.15 1013.39 1013.93 1015.17 1016.19 1017.65 1018.67 1019.33 1019.87 1020.34 1020.54 1020.72 1020.89 1021.05 1021.00 1020.98 1021.21 1021.26 1021.10 1020.88 1020.62 1020.23 1019.90 1019.62 1019.21 1018.88 1018.46 1017.90 1017.65 1017.47 1017.21
Wind_Speed
13 11 23 23 21 16 2 5 12 6 6 9 18 8 11 10 7 7 9 8 8 9 8 8 9 10 8 6 7 11 11 9 8 3 5 3 3 2 2 4 9 6 5 7
9 30 15 10 15 17 16 6 6 4 4 6 5 8 9 10 6 8 11 11 10 6 6 7 11 14 16 15 13 10 9 8 7 4 3 3 3 2 1 2 3 5 4 5
23 6 19 17 17 19 20 18 4 4 1 2 1 6 5 8 5 6 7 9 9 12 11 8 11 17 17 17 17 14 11 8 6 7 5 3 3 2 2 1 2 2 5 6
18 18 23 23 21 16 18 12 8 4 2 4 4 6 5 6 8 5 9 9 11 11 8 10 13 14 19 18 12 13 9 8 6 8 5 4 3 3 2 3 2 4 4 4
11 21 18 22 19 20 9 18 9 4 4 1 2 2 8 3 5 10 10 11 11 11 12 13 16 19 19 10 10 7 8 7 6 6 5 4 3 2 2 2 5 3 3 3
20 14 17 14 16 19 9 15 9 4 5 4 6 7 6 5 6 6 6 9 10 8 10 7 7 8 8 7 7 7 9 6 6 6 6 5 4 2 3 3 3 3 2 2
16 22 11 19 15 13 21 12 5 3 3 8 6 7 10 3 4 3 7 5 5 1 6 8 12 11 11 10 9 8 9 6 6 6 6 3 1 1 1 3 3 5 3 2
14 14 23 16 14 15 16 14 7 8 7 3 6 6 5 4 5 5 6 6 9 11 9 11 9 9 10 11 9 9 9 8 7 8 6 5 6 4 3 4 4 3 4 4
14 7 14 9 6 13 15 12 8 8 2 5 5 0 1 7 10 10 9 13 16 15 13 15 15 15 15 15 14 12 12 11 12 11 8 7 5 7 7 7 6 4 4 4
2 10 8 24 2 13 21 11 8 2 7 6 4 7 5 3 8 9 11 14 16 16 16 15 15 16 16 15 15 14 13 13 13 11 8 5 7 7 6 7 7 6 5 4
6 3 6 8 9 11 7 13 4 6 5 6 5 4 2 7 7 11 11 12 16 17 16 15 15 14 15 15 14 13 13 12 13 13 8 9 8 9 7 7 7 6 6 6
7 1 6 6 9 11 11 15 8 6 3 2 4 2 2 6 10 11 13 14 15 18 17 15 14 14 14 12 13 14 13 17 10 6 7 8 8 7 9 9 9 8 8 7
2 2 6 3 4 12 12 5 10 6 3 5 6 3 4 7 11 12 16 16 16 18 18 15 15 14 14 12 11 13 16 11 7 8 8 8 9 9 9 9 9 8 8 7
7 3 3 7 4 12 11 7 15 6 5 3 3 10 9 9 13 14 16 15 16 15 12 12 16 14 12 13 11 12 15 10 8 9 8 8 8 8 8 7 7 7 6 6
1 3 3 4 18 19 18 14 13 9 5 5 9 13 17 15 16 15 16 13 14 14 14 11 8 11 12 14 14 9 12 9 7 8 8 7 7 7 7 7 7 7 7 7
4 4 5 7 10 18 12 15 15 7 6 5 16 6 10 14 13 14 15 15 15 14 16 14 10 10 13 13 12 10 8 9 7 8 7 7 7 7 7 7 7 7 7 7
5 3 4 4 5 9 12 3 9 4 1 14 8 10 17 16 18 13 14 15 15 15 15 13 11 10 12 11 10 10 9 7 8 7 7 7 7 7 7 7 6 6 7 7
3 2 3 4 9 5 3 1 9 13 6 9 14 20 18 17 14 15 12 16 15 15 13 11 9 9 9 10 9 7 6 6 7 7 7 7 7 7 7 7 6 6 4 6
7 0 0 5 4 3 4 4 5 8 5 9 23 19 22 22 22 15 14 14 14 13 11 9 8 8 7 11 5 7 8 8 8 7 7 8 7 7 7 7 7 6 5 7
7 6 4 2 6 4 3 2 2 4 4 8 18 25 27 18 9 6 13 16 15 14 10 11 10 9 8 7 7 8 11 9 8 9 8 8 7 7 6 6 6 7 6 7
4 3 3 3 5 2 3 3 0 8 7 18 15 18 20 7 10 19 16 15 14 12 13 11 11 9 8 4 4 11 10 12 10 9 8 7 7 7 6 7 8 8 7 8
3 3 3 3 4 3 2 3 4 8 17 22 14 15 23 23 22 18 17 15 13 13 12 10 10 9 5 5 8 11 11 9 7 7 6 7 8 8 7 8 7 8 8 8
2 1 4 5 0 3 5 5 12 15 23 17 21 21 25 23 20 18 16 14 13 13 10 8 7 8 7 5 4 5 5 10 9 9 10 9 9 9 9 9 10 8 8 7
3 1 5 3 8 12 14 17 17 16 23 20 22 21 22 24 18 17 14 13 11 10 8 6 8 7 5 4 5 6 10 12 11 9 10 9 9 10 9 7 6 6 6 6
2 4 7 12 12 17 14 17 19 22 24 25 19 20 22 21 17 15 13 12 9 7 6 5 6 6 7 6 7 7 9 10 8 8 7 7 7 8 7 7 5 5 6 7
4 5 2 4 4 15 11 12 19 25 22 21 24 19 16 18 17 16 12 9 8 7 5 7 7 6 5 6 6 5 6 8 7 7 6 6 5 6 6 5 6 8 10 10
Wind_Direction
189 202 209 199 210 222 226 186 201 205 204 161 230 240 236 251 230 219 236 239 226 223 237 185 178 172 164 171 180 188 179 172 156 149 156 140 141 133 154 156 168 154 129 146
177 225 194 186 197 212 231 245 236 258 195 156 225 242 226 249 218 202 206 226 233 201 218 197 162 172 186 191 197 194 195 177 178 130 109 113 136 171 141 167 149 124 143 185
202 252 196 189 188 196 213 217 196 155 210 138 136 289 215 253 219 222 225 212 209 213 180 194 176 185 187 192 201 200 195 182 162 131 115 91 103 87 107 258 92 188 174 196
222 224 192 190 205 184 209 189 186 205 98 213 142 268 263 225 269 251 257 224 211 206 181 185 180 178 193 202 190 199 188 160 147 143 142 149 187 167 193 174 170 193 176 178
212 191 184 197 201 183 207 178 193 191 168 138 229 47 271 244 259 268 253 234 225 205 182 181 184 188 192 176 187 168 117 119 123 136 140 156 194 201 167 150 188 133 181 169
216 188 187 196 199 187 181 162 157 142 124 263 185 157 275 200 204 286 258 215 220 213 190 180 154 135 147 117 104 101 111 115 135 148 155 163 201 180 140 158 149 128 107 71
202 221 213 169 175 185 185 155 120 110 162 217 208 149 239 167 11 309 307 4 353 241 138 148 150 146 127 113 114 118 116 106 121 113 103 113 185 106 218 153 131 124 126 92
203 201 212 189 187 184 197 165 148 160 177 176 117 221 239 50 29 18 41 61 61 64 78 97 104 104 96 91 83 91 93 93 90 84 75 63 64 84 87 83 100 104 114 122
202 249 178 210 145 158 174 196 172 100 113 104 199 19 349 62 57 66 72 84 88 88 76 82 78 75 79 77 66 69 76 72 63 65 66 63 72 84 96 96 91 86 75 77
223 195 219 200 206 179 183 157 163 99 157 176 211 165 192 93 109 103 99 96 100 88 81 79 82 84 85 82 81 76 76 70 79 63 55 62 67 57 61 66 63 68 63 51
203 249 152 137 193 189 126 180 121 116 145 149 135 252 300 144 133 121 97 100 98 90 86 84 82 83 86 92 88 89 85 75 68 60 29 44 36 53 47 53 45 38 42 28
217 1 117 174 167 187 192 173 146 171 198 115 118 240 112 114 116 116 103 93 92 91 91 86 85 83 82 79 86 88 85 67 49 67 51 41 40 48 53 50 41 35 42 34
243 48 105 74 353 184 223 184 145 128 105 194 123 182 133 120 124 118 115 109 102 100 100 104 93 85 79 71 65 77 68 68 61 64 58 44 37 37 36 33 26 24 20 16
99 277 216 159 196 137 196 175 168 122 107 153 190 141 155 149 139 125 121 117 112 111 108 108 110 94 82 82 67 57 73 61 54 57 52 47 34 28 24 17 15 13 6 360
67 309 280 131 139 147 174 166 157 158 175 140 174 151 168 159 145 134 126 121 116 115 103 77 43 91 100 89 71 56 58 53 48 56 46 30 23 20 9 3 356 353 352 341
14 313 300 55 138 151 161 156 148 141 131 63 136 94 138 142 118 133 133 123 113 99 91 92 82 78 80 77 74 75 62 48 46 48 39 23 16 6 357 351 347 343 337 328
350 9 332 72 103 68 128 126 125 83 71 143 152 166 141 147 142 143 129 116 110 105 102 95 77 63 66 66 69 59 52 40 41 36 25 12 359 355 345 331 336 338 327 318
323 360 334 132 144 134 207 216 121 98 44 98 100 139 137 128 112 105 108 109 106 105 101 91 86 69 65 73 63 70 66 56 46 28 10 359 349 339 325 324 329 318 311 309
201 148 137 123 82 124 137 166 170 135 45 116 125 125 115 113 89 68 98 100 105 99 93 90 88 91 82 83 85 80 64 51 37 15 359 344 331 330 330 334 328 317 311 321
154 207 279 118 103 153 192 162 203 113 127 143 145 138 139 143 121 108 114 106 97 97 99 99 90 79 75 64 75 73 55 39 22 9 358 339 331 322 324 326 323 322 322 322
223 154 119 70 93 359 53 78 161 123 190 141 145 138 137 115 105 124 115 103 101 104 103 94 78 71 63 66 77 61 40 25 10 358 356 342 333 337 349 335 341 338 335 328
48 81 56 78 93 93 346 55 140 133 115 128 133 116 106 110 112 112 113 110 112 111 98 90 91 81 66 53 57 53 38 17 3 348 347 350 357 358 352 342 342 347 345 343
56 112 111 53 71 342 2 69 108 118 117 115 114 119 118 115 115 116 117 116 110 99 94 86 83 71 46 45 47 50 28 20 12 15 11 3 359 359 359 359 357 348 352 354
80 39 79 101 29 72 80 76 85 101 107 114 112 119 115 115 116 114 112 104 100 103 101 98 86 81 61 35 32 36 26 18 14 12 7 358 357 360 1 358 352 350 358 345
21 52 109 89 95 77 63 92 105 102 102 100 100 110 114 115 111 110 104 100 99 94 79 76 82 67 56 44 31 25 25 20 16 5 359 357 357 357 353 356 1 1 10 16
342 144 101 111 84 101 100 101 110 106 104 104 108 97 89 100 103 98 93 99 102 94 82 72 59 65 46 44 40 32 23 25 22 8 4 5 354 357 355 355 2 15 12 9